Location: Newark
(43.4306°N, 0.3089°E)
Time: 01:22:36
(UTC+00:00)

Vanguard 1 Rocket - Visible Passes

Search period start: 25 August 2019 00:00
Search period end: 04 September 2019 00:00
Orbit: 652 x 4224 km, 34.3° (Epoch: 24 August)

Date Brightness Start Highest point End Pass type
(mag) Time Alt. Az. Time Alt. Az. Time Alt. Az.
25 Aug 9.4 01:51:18 11° ESE 01:51:18 11° ESE 01:51:34 10° ESE visible
25 Aug 8.2 04:08:36 16° WSW 04:11:54 33° S 04:18:22 10° ESE visible
26 Aug 7.9 03:01:30 30° SSE 03:01:30 30° SSE 03:06:14 10° ESE visible
27 Aug 9.5 01:54:26 10° ESE 01:54:26 10° ESE 01:54:33 10° ESE visible
27 Aug 8.3 04:11:44 16° SW 04:14:46 29° S 04:20:41 10° SE visible
28 Aug 8.0 03:04:41 28° SSE 03:04:41 28° SSE 03:08:51 10° ESE visible
29 Aug 8.4 04:14:58 15° SW 04:17:40 24° S 04:22:49 10° SE visible
30 Aug 8.3 03:08:00 24° SSE 03:08:00 24° SSE 03:11:23 10° SE visible
31 Aug 8.5 04:18:21 14° SW 04:20:33 18° SSW 04:24:41 10° SSE visible
01 Sep 8.6 03:11:26 19° SSE 03:11:26 19° SSE 03:13:47 10° SE visible
02 Sep 8.8 04:21:52 12° SW 04:23:25 13° SSW 04:26:00 10° S visible
03 Sep 9.0 03:15:01 13° SSE 03:15:01 13° SSE 03:15:56 10° SSE visible
03 Sep 10.0 21:07:05 10° SSW 21:08:59 13° SSW 21:08:59 13° SSW visible
